Location: Banios
(43.0451°N, 0.2335°E)
Time: 08:19:39
(UTC+00:00)

A-11 Canister half - Pass Details

Date: 15 May 2021
Orbit: 1527 x 1681 km, 47.3° (Epoch: 22 June)

Event Time Altitude Azimuth Distance (km) Brightness Sun altitude
Rises 06:18:56 0° 190° (S) 4,677 11.3 17.0°
Reaches altitude 10° 06:22:42 10° 177° (S) 3,712 11.0 17.7°
Maximum altitude 06:29:41 24° 128° (SE) 2,801 11.2 18.9°
Drops below altitude 10° 06:36:49 10° 79° (E) 3,805 13.4 20.2°
Sets 06:40:42 0° 67° (ENE) 4,819 13.0 20.9°
